Location: Obersdorf
(47.4079°N, 10.2781°E)
Time: 05:34:53
(UTC+02:00)

COSMOS 2251 DEB - Pass Details

Date: 08 July 2022
Orbit: 490 x 569 km, 73.9° (Epoch: 11 August)

Event Time Altitude Azimuth Distance (km) Brightness Sun altitude
Exits shadow 04:50:37 - 227° (SW) 2,028 ? -6.1°
Reaches altitude 10° 04:51:07 10° 229° (SW) 1,839 ? -6.0°
Maximum altitude 04:54:57 38° 298° (WNW) 851 ? -5.6°
Drops below altitude 10° 04:58:43 10° 8° (N) 1,805 ? -5.1°
Sets 05:00:59 0° 17° (NNE) 2,685 ? -4.8°
